Home   Weather   Neuwied   Past weeks

Flag for Germany Past Weather in Neuwied, Rhineland-Palatinate, Germany — Yesterday and Last 2 Weeks

Now
64 °F

Mild.


Feels Like: 64 °F
Forecast: 53 / 68 °F
Wind: 7 mph from West

Location: Buechel

Current Time: Sep 25, 2016 at 9:18:39 PM

Latest Report: Sep 25, 2016 at 8:20 PM


Visibility: N/A

Pressure: 30.12 "Hg

Humidity: 60%

Dew Point: 50 °F

Location of NeuwiedLocation

Past Weather in Neuwied — Graph

°F

Neuwied Temperature Yesterday

Maximum temperature yesterday: 70 °F (at 4:20 PM)
Minimum temperature yesterday: 52 °F (at 3:20 AM)
Average temperature yesterday: 60 °F

High & Low Weather Summary for the Past Weeks

 TemperatureHumidityPressure
High84 °F (Sep 12, 4:20 PM)100% (Sep 16, 5:45 AM)30.33 "Hg (Sep 16, 5:45 AM)
Low48 °F (Sep 22, 5:20 AM)35% (Sep 13, 4:20 PM)29.86 "Hg (Sep 15, 4:20 AM)
Average62 °F70%30.07 "Hg
* Reported Sep 10 7:20 PM — Sep 25 7:20 PM, Neuwied, Weather by CustomWeather, © 2016

Note: Actual official high and low records may vary slightly from our data, if they occured in-between our weather recording intervals... More about our weather records

Advertising

Neuwied Weather History for the Previous 24 Hours

Scroll right to see more
 ConditionsComfort  
Time TempWeatherWind HumidityBarometerVisibility
7:20 PM
Sun, Sep 25
66 °FMild.5 mph56%30.09 "HgN/A
6:20 PM70 °FMild.7 mph50%30.09 "HgN/A
5:20 PM72 °FMild.9 mph47%30.09 "HgN/A
4:20 PM72 °FMild.10 mph47%30.07 "HgN/A
3:20 PM72 °FMild.9 mph47%30.07 "HgN/A
2:20 PM70 °FMild.8 mph53%30.09 "HgN/A
1:20 PM68 °FMild.12 mph56%30.09 "HgN/A
12:20 PM66 °FMild.10 mph56%30.09 "HgN/A
11:20 AM64 °FMild.10 mph60%30.09 "HgN/A
10:20 AM61 °FCool.12 mph68%30.09 "HgN/A
9:20 AM59 °FCool.6 mph72%30.09 "HgN/A
8:20 AM55 °FCool.3 mph72%30.09 "Hg2 mi
7:20 AM52 °FCool.6 mph82%30.09 "HgN/A
6:20 AM54 °FCool.6 mph77%30.09 "HgN/A
5:20 AM52 °FCool.5 mph77%30.12 "HgN/A
4:20 AM54 °FCool.5 mph72%30.12 "HgN/A
3:20 AM57 °FCool.8 mph67%30.12 "HgN/A
2:20 AM55 °FCool.7 mph67%30.15 "HgN/A
1:20 AM55 °FCool.6 mph67%30.15 "HgN/A
12:20 AM57 °FCool.6 mph63%30.15 "HgN/A
11:20 PM
Sat, Sep 24
59 °FRefreshingly cool.6 mph59%30.18 "HgN/A
10:20 PM59 °FRefreshingly cool.6 mph59%30.18 "HgN/A
9:20 PM59 °FRefreshingly cool.6 mph59%30.18 "HgN/A
Weather by CustomWeather, © 2016

See weather overviewHow to use our weather pages